Lid_Strength_Index
2 2 2 2 1 2 2 1 2 2 1 2 1 1 1 1 1 2 2 1 2 2 2 2 2 2 2 2 2 2 3 3 4 3 2 2 2 2 2 2 2 2 2
2 2 2 2 2 2 2 2 2 2 2 1 1 1 1 1 2 2 2 1 2 2 2 2 2 1 2 2 2 3 3 2 3 4 3 2 2 2 2 2 2 2 3
2 2 2 2 2 2 2 1 2 2 1 1 1 1 1 1 2 2 2 1 2 1 2 2 2 2 2 2 2 2 2 2 2 3 3 2 2 2 2 2 3 3 3
2 2 2 2 2 2 2 2 1 1 1 1 1 1 1 1 1 1 1 1 1 1 2 2 2 2 2 2 2 2 2 3 2 3 3 2 3 3 3 4 4 3 4
2 2 2 2 2 2 2 2 2 1 2 1 1 1 2 3 3 2 1 2 2 2 2 1 2 2 2 2 2 2 2 3 3 3 3 3 4 4 4 4 4 3 3
2 2 2 2 2 2 2 2 2 2 1 1 1 2 3 2 8 7 4 2 2 2 2 3 3 3 4 5 5 5 3 3 4 4 4 4 4 4 4 4 4 5 5
2 2 2 2 2 2 2 2 2 2 1 2 2 3 4 4 9 10 8 2 2 2 2 1 2 3 3 4 6 6 6 6 4 3 4 4 4 4 4 4 4 5 5
2 2 2 2 2 2 2 2 2 2 3 3 2 3 4 4 9 10 7 2 2 2 2 2 1 3 3 2 3 3 3 3 3 2 3 3 3 3 3 4 5 5 3
2 2 2 2 2 2 2 2 2 2 2 2 2 4 4 4 9 11 4 2 2 2 1 1 1 2 8 7 2 3 3 3 6 7 7 8 9 7 5 4 4 4 3
2 2 2 2 2 2 2 2 2 2 2 1 2 3 4 4 9 10 4 2 2 3 3 3 6 4 9 8 2 3 3 3 3 4 4 6 6 6 6 3 2 3 3
2 2 2 2 2 2 2 2 2 2 2 2 2 3 2 4 6 10 7 2 2 2 3 3 4 9 10 9 6 2 3 3 5 3 3 4 3 3 4 3 2 2 4
2 2 2 2 2 2 2 3 2 2 3 3 3 3 2 3 7 10 10 5 4 2 3 3 6 10 10 9 5 10 9 5 2 2 2 2 3 3 3 2 2 1 1
2 2 2 2 2 2 3 3 2 2 3 3 3 3 3 3 5 9 9 7 6 3 3 6 10 10 10 9 10 9 7 2 2 2 3 3 1 1 2 1 2 2 3
3 2 3 2 2 2 2 3 2 3 3 3 3 3 3 3 4 4 5 5 7 6 9 9 7 6 7 6 6 5 1 1 1 2 2 2 2 3 3 2 3 4 5
2 2 3 2 2 3 3 4 3 4 2 2 2 2 3 3 3 5 4 3 3 5 5 4 5 4 4 3 3 2 2 1 2 2 2 2 2 3 3 2 3 5 6
3 3 3 3 2 2 5 6 11 11 10 8 7 4 2 5 8 9 8 8 8 8 3 3 4 5 4 3 2 2 2 3 2 2 2 2 2 3 2 2 4 5 7
3 3 3 3 3 3 4 5 6 6 10 13 11 8 7 8 9 10 11 10 9 7 3 3 3 4 4 4 3 2 2 2 3 2 2 3 3 2 4 2 4 5 6
3 7 3 4 3 3 3 3 4 5 5 5 10 10 10 10 10 11 12 10 6 5 3 3 3 3 3 3 3 3 3 3 4 3 3 2 2 2 3 3 4 5 6
2 3 3 3 3 3 3 3 3 4 4 5 6 9 12 13 12 12 11 3 3 3 4 3 3 3 3 3 2 2 2 3 3 4 3 3 3 4 4 4 4 8 7
2 5 5 3 3 3 3 3 4 3 4 5 5 4 9 8 6 7 7 3 3 3 2 3 3 4 2 2 3 2 3 4 3 3 3 3 2 3 4 4 3 4 5
2 4 5 3 4 4 3 4 4 3 3 4 5 5 9 4 3 3 4 3 2 2 2 2 3 4 5 4 3 3 3 2 3 3 2 3 2 3 3 4 4 4 5
2 2 3 3 3 4 4 3 4 4 3 3 3 5 13 2 2 2 2 2 2 2 4 3 3 3 4 5 4 3 3 3 4 3 3 2 2 3 3 4 4 5 8
3 3 3 3 3 5 5 3 3 3 3 3 2 4 7 4 4 3 2 2 1 1 1 2 3 2 1 2 3 2 2 3 3 3 4 3 3 2 3 4 4 5 8
3 3 3 3 3 3 3 4 4 6 3 3 3 4 5 5 4 3 2 2 2 2 1 1 1 1 2 2 2 1 2 3 2 2 3 3 4 5 3 4 4 5 8
2 3 3 3 3 4 4 4 3 4 3 3 3 3 3 3 3 2 2 2 1 2 2 1 1 1 2 2 2 2 5 12 4 6 2 3 3 3 3 4 5 6 11
5 2 3 3 4 3 4 4 4 4 4 4 3 3 3 3 2 2 2 2 2 2 1 1 1 2 2 2 2 5 11 11 9 11 4 3 3 4 4 4 5 7 10